Location: Im Fang
(46.6019°N, 7.2397°E)
Time: 23:03:15
(UTC+00:00)

Cosmos 1741 Rocket - Pass Details

Date: 08 December 2019
Orbit: 762 x 782 km, 74.0° (Epoch: 19 January)

Event Time Altitude Azimuth Distance (km) Brightness Sun altitude
Exits shadow 05:43:16 - 335° (NNW) 2,529 6.3 -12.9°
Reaches altitude 10° 05:43:51 10° 335° (NNW) 2,306 6.1 -12.8°
Maximum altitude 05:49:04 74° 251° (WSW) 797 3.9 -12.0°
Drops below altitude 10° 05:54:14 10° 167° (SSE) 2,292 7.0 -11.1°
Sets 05:56:36 0° 166° (SSE) 3,216 7.8 -10.8°
